Regional Weather Roundup
Issued by NWS

Home | Current Version | Previous Version | Graphics & Text | Print | Product List | Glossary On
Versions: 1 2 3 4 5 6 7 8 9 10 11 12 13 14 15 16 17 18 19 20 21 22 23 24 25 26 27 28 29 30 31 32 33 34 35 36 37 38 39 40 41 42 43 44 45 46 47 48 49 50
000
ASUS43 KFSD 220802
RWRSD

WEATHER ROUNDUP FOR SOUTH DAKOTA
NATIONAL WEATHER SERVICE SIOUX FALLS SD
200 AM CST MON DEC 22 2014

NOTE: "FAIR" INDICATES FEW OR NO CLOUDS BELOW 12,000 FEET WITH NO
SIGNIFICANT WEATHER AND/OR OBSTRUCTIONS TO VISIBILITY.


SDZ001>005-009-010-012>017-220900-
NORTHWEST AND NORTH CENTRAL SOUTH DAKOTA

CITY           SKY/WX    TMP DP  RH WIND       PRES   REMARKS
BUFFALO          N/A     38  32  79 NW32G46   29.40S
FAITH            N/A     37  34  89 W16       29.42F
MOBRIDGE       CLOUDY    29  27  92 CALM      29.40F FOG
$$

SDZ012>016-024>037-041>051-057-063-072>074-220900-
SOUTHWEST AND SOUTH CENTRAL SOUTH DAKOTA

CITY           SKY/WX    TMP DP  RH WIND       PRES   REMARKS
RAPID CTY ARPT CLOUDY    40  30  67 NW31G47   29.50S
PIERRE         MIX PCPN  30  29  96 CALM      29.43S FOG
CUSTER         CLOUDY    32  24  72 NW8       29.51R WCI  25
ELLSWORTH AFB  PTCLDY    39  32  77 NW26G37   29.50R
PHILIP         LGT RAIN  40  37  89 NW21G28   29.48R
PINE RIDGE     LGT RAIN  36  33  89 NW6       29.56R
WINNER         LGT RAIN  38  35  89 W15       29.44S
$$

SDZ004>011-016>023-039-040-220900-
NORTHEAST SOUTH DAKOTA

CITY           SKY/WX    TMP DP  RH WIND       PRES   REMARKS
ABERDEEN       CLOUDY    36  34  92 E3        29.44F
WATERTOWN      CLOUDY    36  35  96 S16       29.45F FOG
SISSETON         N/A     34  34 100 S9        29.48F WCI  27
$$

SDZ017-020-022-023-036>040-048>070-220900-
SOUTHEAST SOUTH DAKOTA

CITY           SKY/WX    TMP DP  RH WIND       PRES   REMARKS
SIOUX FALLS    LGT RAIN  40  38  93 S15       29.51F
HURON          CLOUDY    36  34  92 S12       29.43F
MITCHELL       LGT RAIN  37  36  96 S14       29.46F FOG
YANKTON        CLOUDY    39  37  93 S10       29.51F
$$

ABBREVIATIONS USED IN REMARKS
   TC - TEMPERATURE IN CELSIUS
  WCI - WIND CHILL INDEX
   HX - HEAT INDEX
  VSB - VISIBILITY



USA.gov is the U.S. government's official web portal to all federal, state and local government web resources and services.